Location: Augirein
(42.9320°N, 0.9181°E)
Time: 14:35:07
(UTC+00:00)

Lacrosse 4 Rocket - Pass Details

Date: 20 June 2021
Orbit: 543 x 614 km, 68.0° (Epoch: 03 August)

Event Time Altitude Azimuth Distance (km) Brightness Sun altitude
Rises 02:48:03 0° 321° (NW) 2,733 5.0 -13.0°
Reaches altitude 10° 02:50:28 10° 310° (NW) 1,826 4.0 -12.7°
Maximum altitude 02:53:58 28° 250° (WSW) 1,029 2.2 -12.3°
Enters shadow 02:56:21 16° 200° (SSW) 1,440 2.9 -12.0°
